| time (UTC) | temp C | wind direction | speed KPH | gust KPH | rain 1hr cm | rain 24hr cm | rain mn cm | humidity % | barometer mb |
| 20260505151552 | 4 | 314 | 16.1 | 27.4 | 0.00 | 0.00 | 0.00 | 60 | 1019.3 |
| 20260505124559 | 2 | 11 | 17.7 | 22.5 | 0.00 | 0.00 | 0.00 | 71 | 1018.6 |
| 20260505123054 | 1 | 11 | 12.9 | 17.7 | 0.00 | 0.00 | 0.00 | 73 | 1018.5 |
| 20260505121556 | 1 | 12 | 6.4 | 11.3 | 0.00 | 0.00 | 0.00 | 73 | 1018.6 |
| 20260505120053 | 1 | 12 | 8.0 | 16.1 | 0.00 | 0.00 | 0.00 | 71 | 1018.4 |
| 20260505114557 | 2 | 13 | 12.9 | 17.7 | 0.00 | 0.00 | 0.00 | 69 | 1018.4 |
| 20260505113057 | 2 | 355 | 12.9 | 22.5 | 0.00 | 0.00 | 0.00 | 67 | 1018.3 |
| 20260505111552 | 2 | 360 | 14.5 | 22.5 | 0.00 | 0.00 | 0.00 | 65 | 1018.1 |
| 20260505101551 | 3 | 355 | 12.9 | 22.5 | 0.00 | 0.00 | 0.00 | 59 | 1018.0 |
| 20260505100054 | 3 | 352 | 12.9 | 19.3 | 0.00 | 0.00 | 0.00 | 59 | 1017.8 |
| 20260505094550 | 4 | 9 | 14.5 | 20.9 | 0.00 | 0.00 | 0.00 | 57 | 1017.8 |
| 20260505093048 | 3 | 15 | 6.4 | 12.9 | 0.00 | 0.00 | 0.00 | 57 | 1017.6 |
| 20260505091557 | 3 | 0 | 0.0 | 0.0 | 0.00 | 0.00 | 0.00 | 57 | 1017.5 |
| 20260505090051 | 3 | 0 | 0.0 | 0.0 | 0.00 | 0.00 | 0.00 | 57 | 1017.5 |
| 20260505084551 | 4 | 0 | 0.0 | 0.0 | 0.00 | 0.00 | 0.00 | 57 | 1017.5 |
| 20260505083051 | 4 | 0 | 0.0 | 0.0 | 0.00 | 0.00 | 0.00 | 57 | 1017.6 |
| 20260505081553 | 4 | 0 | 0.0 | 9.7 | 0.00 | 0.00 | 0.00 | 56 | 1017.5 |
| 20260505080103 | 5 | 345 | 6.4 | 12.9 | 0.00 | 0.00 | 0.00 | 55 | 1017.6 |
| 20260505074556 | 5 | 350 | 8.0 | 17.7 | 0.00 | 0.00 | 0.00 | 54 | 1017.4 |
| 20260505073058 | 5 | 342 | 12.9 | 24.1 | 0.00 | 0.00 | 0.00 | 52 | 1017.4 |
| 20260505071550 | 5 | 16 | 17.7 | 24.1 | 0.00 | 0.00 | 0.00 | 51 | 1017.4 |
| 20260505070055 | 3 | 36 | 4.8 | 9.7 | 0.00 | 0.00 | 0.00 | 54 | 1017.5 |
| 20260505064555 | 2 | 46 | 3.2 | 8.0 | 0.00 | 0.00 | 0.00 | 55 | 1017.5 |
| 20260505063111 | 2 | 0 | 3.2 | 9.7 | 0.00 | 0.00 | 0.00 | 54 | 1017.5 |
| 20260505061555 | 2 | 0 | 0.0 | 4.8 | 0.00 | 0.00 | 0.00 | 54 | 1017.4 |
| 20260505060058 | 3 | 46 | 0.0 | 6.4 | 0.00 | 0.00 | 0.00 | 53 | 1017.2 |
| 20260505054608 | 3 | 46 | 6.4 | 9.7 | 0.00 | 0.00 | 0.00 | 51 | 1017.1 |
| 20260505053056 | 4 | 46 | 4.8 | 9.7 | 0.00 | 0.00 | 0.00 | 51 | 1017.1 |
| 20260505051555 | 3 | 46 | 4.8 | 8.0 | 0.00 | 0.00 | 0.00 | 52 | 1016.9 |
| 20260505041600 | 5 | 46 | 6.4 | 11.3 | 0.00 | 0.00 | 0.00 | 48 | 1017.1 |
| 20260505040058 | 5 | 47 | 8.0 | 16.1 | 0.00 | 0.00 | 0.00 | 46 | 1016.9 |
| 20260505034557 | 5 | 51 | 11.3 | 16.1 | 0.00 | 0.00 | 0.00 | 46 | 1016.7 |
| 20260505033105 | 6 | 50 | 14.5 | 30.6 | 0.00 | 0.00 | 0.00 | 44 | 1016.4 |
| 20260505031606 | 6 | 36 | 20.9 | 25.7 | 0.00 | 0.00 | 0.00 | 44 | 1016.2 |
| 20260505030113 | 6 | 42 | 20.9 | 27.4 | 0.00 | 0.00 | 0.00 | 42 | 1015.9 |
| 20260505024603 | 7 | 42 | 22.5 | 30.6 | 0.00 | 0.00 | 0.00 | 40 | 1015.5 |
| 20260505023054 | 7 | 43 | 20.9 | 37.0 | 0.00 | 0.00 | 0.00 | 38 | 1015.5 |
| 20260505021558 | 9 | 35 | 22.5 | 30.6 | 0.00 | 0.00 | 0.00 | 32 | 1015.3 |
| 20260505020054 | 10 | 5 | 20.9 | 35.4 | 0.00 | 0.00 | 0.00 | 28 | 1015.1 |
| 20260505014614 | 10 | 360 | 25.7 | 38.6 | 0.00 | 0.00 | 0.00 | 26 | 1014.9 |
| 20260505013053 | 11 | 5 | 24.1 | 35.4 | 0.00 | 0.00 | 0.00 | 24 | 1014.8 |
| 20260505011606 | 11 | 350 | 19.3 | 33.8 | 0.00 | 0.00 | 0.00 | 23 | 1014.5 |
| 20260505010054 | 11 | 332 | 20.9 | 45.1 | 0.00 | 0.00 | 0.00 | 23 | 1014.5 |
| 20260505004555 | 12 | 316 | 25.7 | 45.1 | 0.00 | 0.00 | 0.00 | 22 | 1014.5 |
| 20260505003055 | 12 | 360 | 27.4 | 40.2 | 0.00 | 0.00 | 0.00 | 22 | 1014.5 |
| 20260505001557 | 12 | 344 | 27.4 | 40.2 | 0.00 | 0.00 | 0.00 | 23 | 1014.5 |
| 20260505000107 | 12 | 321 | 32.2 | 45.1 | 0.00 | 0.00 | 0.00 | 23 | 1014.5 |
| 20260504234559 | 12 | 346 | 27.4 | 43.5 | 0.00 | 0.00 | 0.00 | 24 | 1014.6 |
| 20260504233108 | 12 | 348 | 27.4 | 48.3 | 0.00 | 0.00 | 0.00 | 24 | 1014.7 |
| 20260504231601 | 12 | 317 | 27.4 | 38.6 | 0.00 | 0.00 | 0.00 | 23 | 1014.6 |
| 20260504230055 | 12 | 323 | 30.6 | 46.7 | 0.00 | 0.00 | 0.00 | 25 | 1014.7 |
| 20260504224558 | 13 | 318 | 29.0 | 45.1 | 0.00 | 0.00 | 0.00 | 27 | 1014.5 |
| 20260504223127 | 12 | 340 | 24.1 | 45.1 | 0.00 | 0.00 | 0.00 | 30 | 1014.5 |
| 20260504221556 | 12 | 319 | 25.7 | 37.0 | 0.00 | 0.00 | 0.00 | 30 | 1014.5 |
| 20260504220057 | 11 | 323 | 24.1 | 43.5 | 0.00 | 0.00 | 0.00 | 31 | 1014.6 |
| 20260504214555 | 11 | 330 | 32.2 | 43.5 | 0.00 | 0.00 | 0.00 | 32 | 1014.7 |
| 20260504213102 | 11 | 337 | 27.4 | 43.5 | 0.00 | 0.00 | 0.00 | 32 | 1014.8 |
| 20260504211548 | 12 | 11 | 25.7 | 43.5 | 0.00 | 0.00 | 0.00 | 33 | 1014.9 |
| 20260504210056 | 11 | 330 | 33.8 | 53.1 | 0.00 | 0.00 | 0.00 | 33 | 1014.9 |
| 20260504204554 | 12 | 360 | 32.2 | 48.3 | 0.00 | 0.00 | 0.00 | 32 | 1014.8 |
| 20260504203108 | 12 | 352 | 32.2 | 41.8 | 0.00 | 0.00 | 0.00 | 31 | 1014.6 |
| 20260504201559 | 12 | 342 | 30.6 | 46.7 | 0.00 | 0.00 | 0.00 | 32 | 1014.6 |
| 20260504200056 | 12 | 324 | 30.6 | 51.5 | 0.00 | 0.00 | 0.00 | 34 | 1014.6 |
| 20260504194550 | 11 | 336 | 22.5 | 43.5 | 0.00 | 0.00 | 0.00 | 35 | 1014.5 |
| 20260504193104 | 11 | 329 | 25.7 | 38.6 | 0.00 | 0.00 | 0.00 | 35 | 1014.7 |
| 20260504191559 | 12 | 338 | 30.6 | 43.5 | 0.00 | 0.00 | 0.00 | 34 | 1014.8 |
| 20260504190053 | 12 | 322 | 25.7 | 45.1 | 0.00 | 0.00 | 0.00 | 35 | 1014.8 |
| 20260504184558 | 11 | 339 | 22.5 | 37.0 | 0.00 | 0.00 | 0.00 | 36 | 1014.7 |
| 20260504183053 | 12 | 319 | 22.5 | 33.8 | 0.00 | 0.00 | 0.00 | 35 | 1014.7 |
| 20260504181600 | 12 | 352 | 27.4 | 41.8 | 0.00 | 0.00 | 0.00 | 36 | 1014.7 |
| 20260504180054 | 12 | 344 | 22.5 | 37.0 | 0.00 | 0.00 | 0.00 | 36 | 1014.8 |
| 20260504174549 | 11 | 311 | 27.4 | 40.2 | 0.00 | 0.00 | 0.00 | 38 | 1014.9 |
| 20260504173052 | 11 | 309 | 22.5 | 37.0 | 0.00 | 0.00 | 0.00 | 41 | 1015.0 |
| 20260504171555 | 11 | 329 | 19.3 | 35.4 | 0.00 | 0.00 | 0.00 | 41 | 1014.9 |